STARLINK-37245, 68547

Orbit data source: Space-Track

STARLINK-37245, 68547 is a payload satellite owned by SpaceX/Seattle (US) in LEO that was launched on Thu, 02 Apr 2026 UTC via an FALCON 9 launch vehicle from the Air Force Eastern Test Range (AFETR). Payload-class satellites include a variety of spacecraft equipped with specific instruments for various scientific and technological missions. These include communications satellites like Starlink; space stations such as the ISS; scientific satellites like the Hubble; Earth observation satellites from companies like Planet Labs, Umbra, and HawkEye 360; GPS; miniature CubeSats for education and research; and military/defense satellites.

Loading next visibility...
Identifier
68547, 2026-070F
Orbit
LEO
Country
Flag of USUS
Related business
Manufacturer
SpaceX/Seattle
Mission
Operational Commercial Communications
Bus & Motor
STARLINK V2MO, Unknown motor
Mass
575 kg wet, ~530 kg dry
Launch date (UTC)
2026-04-02 (5 months ago)
Launch vehicle
FALCON 9
Launch site
Air Force Eastern Test Range (AFETR)
Object type
Payload
Rocket body
Debris
Shape & HBR
Box + 1 Pan, 17.7 m
Radar Cross Section
41.120 m², Large (>1 m²)

Expand to show TLE details & history
Last TLE update: 10 hours ago

TLE from 10 hours ago
0 STARLINK-37245
1 68547U 26070F   26247.00754396  .00011773  00000-0  35901-3 0  9990
2 68547  53.1587 250.9398 0001508  95.5991 264.5184 15.34402556 23908
Epoch: 2026-09-04T00:10Z
TLE epoch observation values (Epoch: 2026-09-04T00:10:51.798Z)
Latitude
0.00003°
Longitude
-94.91355°
Altitude
463.696 km
Speed
7.636 km/s
True Right ascension
16h 43m 45s
True Declination
0° 00' 00"
Sunlit
Object was in daylight at epoch
Visualization orbit readout
Latitude
Unknown
Longitude
Unknown
Altitude
Unknown
Speed
Unknown
Apparent Right ascension
Unknown
Apparent Declination
Unknown
Sunlit
N/A
Visualization observer readout
Local Sidereal Time
01:36:42
Azimuth
Unknown
Elevation
Unknown
Doppler factor
Unknown
Orbital elements
Apogee altitude
463.984 km
Perigee altitude
461.921 km
Semi-major axis
6,841.09 km
Eccentricity
0.00015
Inclination
53.1587°
RAAN
250.9398°
Arg. of periapsis
95.5991°
True anomaly
264.5012°
Mean anomaly
264.5184°
Eccentric anomaly
264.5098°
Mean motion
3.83579 °/min
Orbital period
93.85 mins
BSTAR
0.00035901
Loading maneuver chart data...
Computing Atmospheric mass density...
Loading historical data...
Loading historical data...
Loading historical data...
Loading historical data...
Loading historical data...
Loading historical data...
Loading historical data...

Documentation

Showing up to 5 results
|